[[{"header":{"parameterUnit":"m.s-1","parameterCategory":1,"la1":30.2991,"la2":30.254,"lo1":-89.0895,"lo2":-89.0444,"dy":0.0017,"dx":0.0017,"nx":28,"ny":28,"refTime":"2025-08-02T21:00:00:Z","depth":0,"parameterNumber":2,"parameterNumberName":"U-component_of_WINDS"},"data":[0,0,0,0,0,0,0,0,0,0,0,0,0,0,0,0,0,0,0,0,0,0,0,0,0,0,0,0,0,0,0,0,0,0,0,0,0,0,0,0,0,0,0,0,0,0,0,0,0,0,0,0,0,0,0,0,0,0,-0.5899,-0.59,0,-0.5958,-0.5959,-0.5959,-0.599,-0.599,-0.599,-0.599,-0.6048,-0.605,-0.6051,0,0,0,0,0,0,0,0,0,0,0,0,0,-0.5811,-0.5812,-0.5899,-0.59,-0.5901,-0.5958,-0.5959,-0.596,-0.599,-0.599,-0.599,-0.599,-0.6048,-0.605,-0.6051,0,0,0,0,0,0,0,0,0,0,0,0,0,-0.5857,-0.5813,-0.5899,-0.5923,-0.5925,-0.5958,-0.5959,-0.596,-0.599,-0.599,-0.599,-0.599,-0.6047,-0.6049,-0.6052,-0.6065,0,0,-0.6059,-0.606,0,0,0,0,0,0,0,0,-0.5855,-0.5861,-0.5918,-0.5921,-0.5924,-0.5967,-0.5949,-0.5995,-0.599,-0.5965,-0.599,-0.599,-0.6021,-0.6025,-0.6036,-0.6068,-0.607,-0.6059,-0.606,-0.6061,-0.6062,0,0,0,0,0,0,0,-0.5851,-0.5858,-0.5922,-0.5919,-0.5923,-0.593,-0.5936,-0.5958,-0.5992,-0.5967,-0.597,-0.5976,-0.6023,-0.6034,-0.6038,-0.6071,-0.6059,-0.6061,-0.6062,-0.6063,-0.6116,-0.6116,0,0,0,0,0,0,-0.5845,-0.5855,-0.5921,-0.5924,-0.5889,-0.5931,-0.5939,-0.5953,-0.5992,-0.5998,-0.5976,-0.5977,-0.603,-0.6035,-0.604,-0.6058,-0.6061,-0.6063,-0.6065,-0.6116,-0.6116,-0.6116,0,0,0,0,0,0,-0.5843,-0.585,-0.5918,-0.589,-0.59,-0.5933,-0.5948,-0.5954,-0.5966,-0.5999,-0.6005,-0.5982,-0.603,-0.6037,-0.6059,-0.606,-0.6064,-0.6067,-0.6116,-0.6116,-0.6116,-0.6094,0,0,0,0,0,0,-0.584,-0.5849,-0.5855,-0.589,-0.5901,-0.5936,-0.5949,-0.5955,-0.597,-0.5972,-0.6005,-0.6011,-0.6031,-0.6055,-0.6061,-0.6064,-0.6068,-0.6116,-0.6116,-0.6116,-0.6094,-0.6093,-0.6092,0,0,0,0,0,-0.5837,-0.5846,-0.5855,-0.5863,-0.5909,-0.5936,-0.5942,-0.5965,-0.597,-0.5976,-0.5997,-0.601,-0.6059,-0.6057,-0.6064,-0.6067,-0.6116,-0.6116,-0.6116,-0.6095,-0.6093,-0.6092,0,0,0,0,0,0,-0.581,-0.5851,-0.5862,-0.5883,-0.5906,-0.5941,-0.5949,-0.5963,-0.5985,-0.5986,-0.6013,-0.602,-0.6039,-0.6055,-0.6052,-0.6082,-0.6089,-0.609,-0.6071,-0.6069,-0.6068,-0.6064,-0.607,0,0,0,0,0,-0.5807,-0.5826,-0.5861,-0.5876,-0.5887,-0.5916,-0.5929,-0.5945,-0.5969,-0.5979,-0.6002,-0.6024,-0.6045,-0.6058,-0.6079,-0.6097,-0.6104,-0.6103,-0.6101,-0.61,-0.6101,-0.6111,-0.6111,-0.6116,-0.6116,-0.6116,0,0,-0.58,-0.5825,-0.5835,-0.5871,-0.5891,-0.591,-0.5924,-0.5943,-0.5957,-0.5982,-0.6004,-0.6021,-0.6048,-0.6068,-0.6078,-0.6082,-0.6101,-0.61,-0.6099,-0.61,-0.6111,-0.6111,-0.611,-0.6116,-0.6116,-0.6116,0,0,-0.5797,-0.5818,-0.5833,-0.5852,-0.5882,-0.5901,-0.5905,-0.5938,-0.5951,-0.5973,-0.5992,-0.6008,-0.6043,-0.6062,-0.6076,-0.608,-0.6092,-0.6085,-0.6079,-0.6088,-0.6088,-0.6088,-0.6089,-0.6089,-0.6086,-0.6086,-0.6086,0,-0.5785,-0.5814,-0.5839,-0.5857,-0.5872,-0.5896,-0.5911,-0.5928,-0.5963,-0.5972,-0.5977,-0.6021,-0.6041,-0.6065,-0.6066,-0.6077,-0.6081,-0.6082,-0.6086,-0.6086,-0.6086,-0.6088,-0.6088,-0.6085,-0.6085,-0.6085,-0.6085,0,-0.5797,-0.5817,-0.5826,-0.5859,-0.5875,-0.5892,-0.5919,-0.5932,-0.5946,-0.5964,-0.5987,-0.6012,-0.6038,-0.6045,-0.6058,-0.6071,-0.6072,-0.6081,-0.6088,-0.6084,-0.6086,-0.6087,-0.6084,-0.6084,-0.6084,-0.6085,0,0,-0.578,-0.5826,-0.5829,-0.5844,-0.5878,-0.5894,-0.5911,-0.5937,-0.5948,-0.5971,-0.5986,-0.6015,-0.6023,-0.6039,-0.6055,-0.6063,-0.6064,-0.6071,-0.6072,-0.6069,-0.6079,-0.6072,-0.6072,-0.6073,-0.6073,-0.6073,-0.6076,0,-0.5782,-0.5814,-0.5837,-0.5861,-0.5879,-0.5901,-0.5916,-0.5938,-0.5956,-0.5974,-0.5993,-0.6013,-0.6022,-0.6032,-0.6042,-0.6062,-0.6066,-0.6062,-0.6086,-0.6087,-0.6079,-0.6073,-0.6066,-0.6068,-0.6077,-0.6077,-0.6077,0,-0.5788,-0.5811,-0.5837,-0.5868,-0.5877,-0.589,-0.5916,-0.5933,-0.5958,-0.597,-0.5987,-0.6004,-0.6022,-0.6028,-0.6053,-0.605,-0.6061,-0.6073,-0.6073,-0.6076,-0.6082,-0.6076,-0.6069,-0.6069,-0.6079,-0.6079,-0.6079,0,-0.5773,-0.5809,-0.583,-0.5842,-0.5879,-0.5888,-0.5904,-0.5929,-0.5944,-0.5965,-0.5975,-0.5998,-0.6011,-0.6029,-0.6051,-0.6053,-0.6074,-0.6081,-0.6084,-0.6083,-0.6088,-0.6087,-0.6082,-0.6095,-0.6095,-0.6095,-0.6095,0,-0.5773,-0.5787,-0.5823,-0.5835,-0.5852,-0.5878,-0.5893,-0.5911,-0.5934,-0.5949,-0.5969,-0.5984,-0.6012,-0.6029,-0.6047,-0.6065,-0.6071,-0.608,-0.6085,-0.6079,-0.6077,-0.6086,-0.6087,-0.6095,-0.6095,-0.6095,-0.6095,0,-0.5758,-0.5783,-0.5806,-0.5839,-0.5848,-0.5859,-0.5888,-0.59,-0.5919,-0.5938,-0.5944,-0.5973,-0.5995,-0.6019,-0.6048,-0.6059,-0.6076,-0.6083,-0.6068,-0.6071,-0.6072,-0.6071,-0.6073,-0.6074,-0.6085,-0.6085,-0.6085,0,-0.5756,-0.5768,-0.5803,-0.5815,-0.5831,-0.585,-0.5865,-0.589,-0.5904,-0.5934,-0.5942,-0.5965,-0.5985,-0.6018,-0.6042,-0.6064,-0.6071,-0.607,-0.6074,-0.6068,-0.6071,-0.607,-0.6071,-0.6068,-0.6068,-0.6068,-0.6068,0,-0.5751,-0.5762,-0.5782,-0.5807,-0.5824,-0.5844,-0.5865,-0.5874,-0.5903,-0.5918,-0.594,-0.5956,-0.5986,-0.6008,-0.6033,-0.6049,-0.6063,-0.6066,-0.6068,-0.6062,-0.6053,-0.6057,-0.6064,-0.6066,-0.6066,-0.6066,-0.6067,-0.6067,-0.5742,-0.5754,-0.578,-0.5802,-0.5821,-0.584,-0.5853,-0.5873,-0.5893,-0.592,-0.5933,-0.5955,-0.598,-0.6015,-0.603,-0.6048,-0.6052,-0.6055,-0.6055,-0.6055,-0.6054,-0.605,-0.6052,-0.6052,-0.6052,-0.6052,-0.6052,0,-0.5738,-0.5756,-0.5775,-0.5804,-0.5821,-0.5834,-0.5858,-0.5871,-0.589,-0.5912,-0.5931,-0.5957,-0.5979,-0.6003,-0.6027,-0.6036,-0.6043,-0.6041,-0.604,-0.6044,-0.6048,-0.6045,-0.6035,-0.6035,-0.6035,-0.6035,-0.6035,-0.6035,-0.5737,-0.5757,-0.5771,-0.5801,-0.5818,-0.5841,-0.5853,-0.5871,-0.5888,-0.5916,-0.5935,-0.5951,-0.5974,-0.5999,-0.6019,-0.6026,-0.6033,-0.6029,-0.6038,-0.6042,-0.6043,-0.6045,-0.6041,-0.6031,-0.6031,-0.6032,-0.6032,-0.6032]},{"header":{"parameterUnit":"m.s-1","parameterCategory":1,"la1":30.2991,"la2":30.254,"lo1":-89.0895,"lo2":-89.0444,"dy":0.0017,"dx":0.0017,"nx":28,"ny":28,"refTime":"2025-08-02T21:00:00:Z","depth":0,"parameterNumber":3,"parameterNumberName":"V-component_of_WINDS"},"data":[0,0,0,0,0,0,0,0,0,0,0,0,0,0,0,0,0,0,0,0,0,0,0,0,0,0,0,0,0,0,0,0,0,0,0,0,0,0,0,0,0,0,0,0,0,0,0,0,0,0,0,0,0,0,0,0,0,0,0.1946,0.1949,0,0.2235,0.2239,0.2242,0.2336,0.2335,0.2334,0.2333,0.2634,0.2643,0.2652,0,0,0,0,0,0,0,0,0,0,0,0,0,0.1482,0.149,0.1946,0.1949,0.1953,0.2235,0.2239,0.2243,0.2337,0.2335,0.2334,0.2332,0.2631,0.2641,0.2653,0,0,0,0,0,0,0,0,0,0,0,0,0,0.1718,0.1492,0.1945,0.2034,0.2045,0.2234,0.2239,0.2244,0.2337,0.2335,0.2333,0.2331,0.2627,0.264,0.2654,0.2778,0,0,0.2696,0.2702,0,0,0,0,0,0,0,0,0.1705,0.1735,0.2017,0.2028,0.204,0.2248,0.2186,0.2423,0.2337,0.2226,0.2333,0.233,0.2507,0.2531,0.2589,0.2792,0.2805,0.2697,0.2706,0.2712,0.2716,0,0,0,0,0,0,0,0.1688,0.1723,0.206,0.2021,0.2035,0.2061,0.2093,0.2231,0.2374,0.2236,0.2243,0.2276,0.2513,0.2576,0.2597,0.2809,0.2697,0.2709,0.2718,0.2723,0.3131,0.3134,0,0,0,0,0,0,0.1656,0.1709,0.2051,0.2069,0.1864,0.2071,0.2106,0.2183,0.2373,0.24,0.2277,0.2279,0.2553,0.2581,0.2608,0.2768,0.2712,0.2725,0.2733,0.3129,0.3132,0.3135,0,0,0,0,0,0,0.1646,0.1686,0.204,0.1891,0.1938,0.2081,0.2167,0.219,0.2253,0.2404,0.2431,0.2314,0.2553,0.2589,0.2735,0.2779,0.2731,0.2743,0.3126,0.313,0.3133,0.3086,0,0,0,0,0,0,0.1632,0.1681,0.1728,0.1892,0.1946,0.216,0.2169,0.2197,0.2276,0.2281,0.2446,0.2472,0.2554,0.2714,0.2749,0.2797,0.2754,0.3123,0.3128,0.3132,0.3084,0.3088,0.3091,0,0,0,0,0,0.1615,0.1703,0.173,0.1771,0.2007,0.2162,0.2193,0.2285,0.2278,0.2328,0.2426,0.2466,0.2768,0.2728,0.2768,0.2822,0.312,0.3126,0.3132,0.3083,0.3087,0.309,0,0,0,0,0,0,0.1543,0.1726,0.1758,0.1901,0.2015,0.2178,0.2243,0.2286,0.2405,0.2406,0.2516,0.2552,0.2691,0.2771,0.2723,0.2953,0.2947,0.2961,0.2896,0.2901,0.2904,0.2882,0.2766,0,0,0,0,0,0.1543,0.1652,0.1807,0.1919,0.1975,0.2098,0.217,0.223,0.2354,0.2403,0.2511,0.2631,0.2753,0.2831,0.2952,0.3096,0.3135,0.3153,0.3156,0.3158,0.3169,0.3254,0.3264,0.3154,0.3154,0.3154,0,0,0.1545,0.1659,0.1722,0.1908,0.2003,0.2116,0.2139,0.2256,0.2342,0.2421,0.2567,0.265,0.2791,0.2938,0.3008,0.3009,0.3208,0.3165,0.3165,0.3176,0.3261,0.3271,0.328,0.3158,0.3157,0.3156,0,0,0.1608,0.1704,0.1809,0.1904,0.2048,0.213,0.2155,0.2312,0.2371,0.2518,0.2581,0.2685,0.2892,0.2991,0.3068,0.317,0.3213,0.3207,0.3224,0.3306,0.3314,0.3323,0.3361,0.3374,0.3217,0.3217,0.3217,0,0.1594,0.1764,0.1858,0.1973,0.2054,0.213,0.2239,0.2327,0.2504,0.2559,0.2557,0.2821,0.2921,0.3093,0.3118,0.3177,0.3212,0.3189,0.3305,0.3314,0.3324,0.3362,0.3376,0.3216,0.3216,0.3216,0.3216,0,0.174,0.1857,0.1925,0.2093,0.2182,0.2293,0.2406,0.2485,0.2539,0.2622,0.2773,0.2896,0.3044,0.3089,0.3142,0.327,0.3266,0.3283,0.3279,0.3331,0.3369,0.3384,0.3213,0.3214,0.3214,0.3215,0,0,0.1765,0.1984,0.2007,0.2085,0.2251,0.2344,0.246,0.2604,0.2671,0.2791,0.2893,0.3067,0.3085,0.3172,0.3238,0.3309,0.3386,0.3319,0.3324,0.3328,0.3536,0.3523,0.3538,0.3414,0.3417,0.342,0.3525,0,0.185,0.2058,0.2147,0.2316,0.2427,0.2502,0.2604,0.2718,0.2799,0.2907,0.2998,0.3121,0.3133,0.3187,0.3261,0.336,0.3429,0.3354,0.3513,0.3517,0.3476,0.3558,0.3544,0.3637,0.354,0.3543,0.3545,0,0.1977,0.2096,0.2276,0.243,0.248,0.2569,0.271,0.2811,0.2943,0.2997,0.3096,0.3158,0.3286,0.3272,0.3451,0.3398,0.3468,0.3527,0.3533,0.3552,0.3534,0.3581,0.3669,0.3683,0.3568,0.3567,0.3565,0,0.1979,0.2185,0.232,0.2384,0.2567,0.2628,0.2708,0.2837,0.2919,0.3042,0.3097,0.3233,0.3308,0.3414,0.3513,0.3493,0.3683,0.3677,0.3734,0.3731,0.3771,0.3767,0.3873,0.3813,0.3813,0.3813,0.3813,0,0.2066,0.2173,0.2324,0.2406,0.253,0.2633,0.2753,0.2838,0.2953,0.3056,0.3129,0.3224,0.3348,0.346,0.3538,0.3675,0.3708,0.3758,0.3778,0.3752,0.3746,0.3801,0.3797,0.3817,0.3816,0.3815,0.3814,0,0.2089,0.2194,0.2346,0.2507,0.255,0.2634,0.2773,0.2858,0.2942,0.3072,0.3108,0.3242,0.3378,0.3487,0.3664,0.3717,0.3861,0.3883,0.3816,0.3827,0.3878,0.3872,0.4024,0.405,0.397,0.3971,0.3971,0,0.2138,0.2223,0.2392,0.2466,0.2544,0.2661,0.2745,0.285,0.2935,0.3092,0.3159,0.3299,0.3417,0.3631,0.3745,0.3882,0.3908,0.3952,0.393,0.3902,0.3912,0.3906,0.3916,0.3955,0.3955,0.3955,0.3955,0,0.2215,0.2263,0.238,0.2515,0.2613,0.2725,0.2839,0.2896,0.3022,0.3114,0.3253,0.3344,0.3526,0.3665,0.3814,0.3899,0.3949,0.3962,0.3982,0.3958,0.3916,0.3942,0.3825,0.3958,0.3958,0.3957,0.3957,0.3957,0.2255,0.2334,0.2466,0.2595,0.2691,0.2797,0.2885,0.2981,0.3098,0.3253,0.3309,0.3452,0.3585,0.379,0.3875,0.399,0.3995,0.4024,0.4032,0.4038,0.4036,0.3897,0.4018,0.4018,0.4018,0.4018,0.4018,0,0.2337,0.2426,0.2543,0.27,0.2802,0.2839,0.2968,0.3051,0.3176,0.3294,0.3409,0.357,0.3706,0.3832,0.3975,0.4043,0.407,0.4077,0.4074,0.4093,0.4023,0.3991,0.4053,0.4053,0.4053,0.4053,0.4053,0.4053,0.2391,0.2528,0.2592,0.2779,0.2868,0.3008,0.3079,0.3178,0.3273,0.3449,0.3562,0.3643,0.3766,0.3918,0.4046,0.408,0.413,0.4131,0.4171,0.4103,0.4098,0.4093,0.4064,0.414,0.4141,0.4232,0.4233,0.4233]}]]